Flag for Japan Weather past 2 weeks in Suzuka, Japan

Now
63 °F

Mild.


Feels Like: 63 °F
Forecast: 62 / 72 °F
Wind: 3 mph from West

Location: Tsu

Current Time: Oct 26, 2014 at 1:55:21 AM

Latest Report: Oct 26, 2014 at 1:00 AM


Visibility: N/A

Pressure: 30.20 "Hg

Humidity: 80%

Dew point: 57 °F

Location of SuzukaLocation

Historic Weather in Suzuka — Graph

°F

Suzuka temperature yesterday

Maximum temperature yesterday: 69 °F (at 2:00 PM)
Minimum temperature yesterday: 56 °F (at 4:00 AM)
Average temperature yesterday: 62 °F

Past Weeks' High & Low Weather Summary

 TemperatureHumidityPressure
High75 °F (Oct 13, 10:00 PM)97% (Oct 21, 1:00 AM)30.37 "Hg (Oct 21, 1:00 AM)
Low51 °F (Oct 19, 6:00 AM)37% (Oct 17, 2:00 PM)29.09 "Hg (Oct 13, 10:00 PM)
Average64 °F71%30.06 "Hg
* Reported Midnight between Oct 10 and Oct 11 — Midnight between Oct 25 and Oct 26, Suzuka, Weather by CustomWeather, © 2014

Note: Actual official high and low records may vary slightly from our data, if they occured in-between our weather recording intervals... More about our weather records

Advertising

Suzuka weather history for previous 24 hours

 ConditionsComfort  
Time TempWeatherWind HumidityBarometerVisibility
12:00 AM
Oct 26
63 °FMild.5 mph82%30.20 "HgN/A
11:00 PM
Oct 25
63 °FMild.3 mph80%30.20 "HgN/A
10:00 PM63 °FMild.3 mph79%30.21 "HgN/A
9:00 PM64 °FOvercast.3 mph75%30.22 "Hg9 mi
8:00 PM65 °FMild.3 mph75%30.21 "HgN/A
7:00 PM66 °FMild.3 mph72%30.21 "HgN/A
6:00 PM67 °FMild.2 mph66%30.19 "HgN/A
5:00 PM67 °FMild.3 mph64%30.19 "HgN/A
4:00 PM68 °FMild.3 mph65%30.19 "HgN/A
3:00 PM68 °FPartly sunny.5 mph64%30.18 "Hg6 mi
2:00 PM69 °FMild.7 mph60%30.18 "HgN/A
1:00 PM67 °FMild.7 mph67%30.19 "HgN/A
12:00 PM66 °FMild.3 mph68%30.21 "HgN/A
11:00 AM67 °FMild.5 mph70%30.24 "HgN/A
10:00 AM64 °FMild.3 mph73%30.25 "HgN/A
9:00 AM63 °FFog.3 mph77%30.25 "Hg5 mi
8:00 AM60 °FCool.1 mph84%30.25 "HgN/A
7:00 AM58 °FCool.2 mph87%30.23 "HgN/A
6:00 AM57 °FCool.3 mph87%30.22 "HgN/A
5:00 AM58 °FCool.3 mph85%30.22 "HgN/A
4:00 AM56 °FCool.5 mph88%30.21 "HgN/A
3:00 AM56 °FCool.5 mph88%30.21 "HgN/A
2:00 AM56 °FCool.5 mph87%30.21 "HgN/A
1:00 AM57 °FCool.3 mph87%30.20 "HgN/A
Weather by CustomWeather, © 2014

See weather overviewHow to use our weather pages